����������;��������(kVARh)
2019-03-25 00:00;0
2019-03-25 00:15;0
2019-03-25 00:30;0
2019-03-25 00:45;0
2019-03-25 01:00;0
2019-03-25 01:15;0
2019-03-25 01:30;0
2019-03-25 01:45;0
2019-03-25 02:00;0
2019-03-25 02:15;0
2019-03-25 02:30;0
2019-03-25 02:45;0
2019-03-25 03:00;0,1
2019-03-25 03:15;0
2019-03-25 03:30;0
2019-03-25 03:45;0,3
2019-03-25 04:00;0
2019-03-25 04:15;0
2019-03-25 04:30;0,3
2019-03-25 04:45;0
2019-03-25 05:00;0
2019-03-25 05:15;0,25
2019-03-25 05:30;0,35
2019-03-25 05:45;0,05
2019-03-25 06:00;0,05
2019-03-25 06:15;0,45
2019-03-25 06:30;0,7
2019-03-25 06:45;1
2019-03-25 07:00;0,05
2019-03-25 07:15;0,15
2019-03-25 07:30;1,6
2019-03-25 07:45;1,75
2019-03-25 08:00;1,95
2019-03-25 08:15;0,85
2019-03-25 08:30;1
2019-03-25 08:45;1,35
2019-03-25 09:00;1,7
2019-03-25 09:15;2,6
2019-03-25 09:30;1,1
2019-03-25 09:45;0,2
2019-03-25 10:00;1
2019-03-25 10:15;2,9
2019-03-25 10:30;4,9
2019-03-25 10:45;4,65
2019-03-25 11:00;6,2
2019-03-25 11:15;4,95
2019-03-25 11:30;4,9
2019-03-25 11:45;6,2
2019-03-25 12:00;6,95
2019-03-25 12:15;7,1
2019-03-25 12:30;9,15
2019-03-25 12:45;10,55
2019-03-25 13:00;9,85
2019-03-25 13:15;9,5
2019-03-25 13:30;10,45
2019-03-25 13:45;9,45
2019-03-25 14:00;9,55
2019-03-25 14:15;11,1
2019-03-25 14:30;12,25
2019-03-25 14:45;14
2019-03-25 15:00;14,7
2019-03-25 15:15;13,65
2019-03-25 15:30;12,9
2019-03-25 15:45;9,85
2019-03-25 16:00;9,55
2019-03-25 16:15;9,7
2019-03-25 16:30;10,6
2019-03-25 16:45;10,2
2019-03-25 17:00;10,8
2019-03-25 17:15;10
2019-03-25 17:30;6,95
2019-03-25 17:45;8,7
2019-03-25 18:00;9,1
2019-03-25 18:15;13,8
2019-03-25 18:30;9,95
2019-03-25 18:45;6,7
2019-03-25 19:00;4,95
2019-03-25 19:15;9,95
2019-03-25 19:30;9,5
2019-03-25 19:45;7,65
2019-03-25 20:00;8,2
2019-03-25 20:15;8,9
2019-03-25 20:30;8,45
2019-03-25 20:45;6,5
2019-03-25 21:00;5,75
2019-03-25 21:15;4
2019-03-25 21:30;4,6
2019-03-25 21:45;2,25
2019-03-25 22:00;1,55
2019-03-25 22:15;1,7
2019-03-25 22:30;3,55
2019-03-25 22:45;2,85
2019-03-25 23:00;3,5
2019-03-25 23:15;1,4
2019-03-25 23:30;0
2019-03-25 23:45;0
2019-03-26 00:00;0,2
2019-03-26 00:15;0,05
2019-03-26 00:30;0,05
2019-03-26 00:45;0
2019-03-26 01:00;0
2019-03-26 01:15;0
2019-03-26 01:30;0,1
2019-03-26 01:45;0,4
2019-03-26 02:00;0,25
2019-03-26 02:15;0,05
2019-03-26 02:30;0,4
2019-03-26 02:45;0
2019-03-26 03:00;0,2
2019-03-26 03:15;0
2019-03-26 03:30;0
2019-03-26 03:45;0
2019-03-26 04:00;0,05
2019-03-26 04:15;0
2019-03-26 04:30;0,7
2019-03-26 04:45;1,15
2019-03-26 05:00;1,3
2019-03-26 05:15;1,55
2019-03-26 05:30;0,45
2019-03-26 05:45;0,05
2019-03-26 06:00;0
2019-03-26 06:15;0
2019-03-26 06:30;0,05
2019-03-26 06:45;0,6
2019-03-26 07:00;5,2
2019-03-26 07:15;5,65
2019-03-26 07:30;8,2
2019-03-26 07:45;9,8
2019-03-26 08:00;20,85
2019-03-26 08:15;26
2019-03-26 08:30;31,45
2019-03-26 08:45;30,75
2019-03-26 09:00;28,05
2019-03-26 09:15;27,05
2019-03-26 09:30;33,35
2019-03-26 09:45;36,85
2019-03-26 10:00;63,85
2019-03-26 10:15;38,05
2019-03-26 10:30;42,4
2019-03-26 10:45;39,55
2019-03-26 11:00;43,25
2019-03-26 11:15;49,15
2019-03-26 11:30;46,85
2019-03-26 11:45;46,75
2019-03-26 12:00;43,45
2019-03-26 12:15;48,9
2019-03-26 12:30;45,8
2019-03-26 12:45;47,1
2019-03-26 13:00;49,95
2019-03-26 13:15;45,15
2019-03-26 13:30;46,25
2019-03-26 13:45;43,65
2019-03-26 14:00;47,95
2019-03-26 14:15;48,15
2019-03-26 14:30;51,35
2019-03-26 14:45;48
2019-03-26 15:00;43,45
2019-03-26 15:15;43,5
2019-03-26 15:30;43,7
2019-03-26 15:45;45,95
2019-03-26 16:00;39
2019-03-26 16:15;46,85
2019-03-26 16:30;41,2
2019-03-26 16:45;34,3
2019-03-26 17:00;28,1
2019-03-26 17:15;33,35
2019-03-26 17:30;28,25
2019-03-26 17:45;33,3
2019-03-26 18:00;30,6
2019-03-26 18:15;22,1
2019-03-26 18:30;21,1
2019-03-26 18:45;27
2019-03-26 19:00;24,8
2019-03-26 19:15;30,3
2019-03-26 19:30;31
2019-03-26 19:45;26,7
2019-03-26 20:00;24,2
2019-03-26 20:15;21,3
2019-03-26 20:30;23,1
2019-03-26 20:45;20,9
2019-03-26 21:00;20,2
2019-03-26 21:15;23,3
2019-03-26 21:30;19,2
2019-03-26 21:45;16,55
2019-03-26 22:00;17,6
2019-03-26 22:15;16,8
2019-03-26 22:30;18,05
2019-03-26 22:45;20,1
2019-03-26 23:00;15,15
2019-03-26 23:15;10,55
2019-03-26 23:30;10,55
2019-03-26 23:45;11,25
2019-03-27 00:00;10,35
2019-03-27 00:15;9,7
2019-03-27 00:30;10,15
2019-03-27 00:45;10,5
2019-03-27 01:00;11,65
2019-03-27 01:15;11,6
2019-03-27 01:30;12
2019-03-27 01:45;12,95
2019-03-27 02:00;12,45
2019-03-27 02:15;8,25
2019-03-27 02:30;7,8
2019-03-27 02:45;9,15
2019-03-27 03:00;10,15
2019-03-27 03:15;9,1
2019-03-27 03:30;9,7
2019-03-27 03:45;9,8
2019-03-27 04:00;10,05
2019-03-27 04:15;9,9
2019-03-27 04:30;9,4
2019-03-27 04:45;9,05
2019-03-27 05:00;10,8
2019-03-27 05:15;9,9
2019-03-27 05:30;8,85
2019-03-27 05:45;7,7
2019-03-27 06:00;7,85
2019-03-27 06:15;8,05
2019-03-27 06:30;6,45
2019-03-27 06:45;8,35
2019-03-27 07:00;13,75
2019-03-27 07:15;14,4
2019-03-27 07:30;35,3
2019-03-27 07:45;13,85
2019-03-27 08:00;14,95
2019-03-27 08:15;21,15
2019-03-27 08:30;23,05
2019-03-27 08:45;26,3
2019-03-27 09:00;25,1
2019-03-27 09:15;28,5
2019-03-27 09:30;26,95
2019-03-27 09:45;31,1
2019-03-27 10:00;37,15
2019-03-27 10:15;36,35
2019-03-27 10:30;39,05
2019-03-27 10:45;42,85
2019-03-27 11:00;45,75
2019-03-27 11:15;46,75
2019-03-27 11:30;40,15
2019-03-27 11:45;43,3
2019-03-27 12:00;42,65
2019-03-27 12:15;42,05
2019-03-27 12:30;48,5
2019-03-27 12:45;47
2019-03-27 13:00;46,25
2019-03-27 13:15;42,3
2019-03-27 13:30;44,4
2019-03-27 13:45;41,7
2019-03-27 14:00;41,45
2019-03-27 14:15;42,8
2019-03-27 14:30;41,65
2019-03-27 14:45;43
2019-03-27 15:00;40,95
2019-03-27 15:15;31,3
2019-03-27 15:30;40,9
2019-03-27 15:45;36
2019-03-27 16:00;38,55
2019-03-27 16:15;30,5
2019-03-27 16:30;36,75
2019-03-27 16:45;31,4
2019-03-27 17:00;32,9
2019-03-27 17:15;33,25
2019-03-27 17:30;36
2019-03-27 17:45;25,95
2019-03-27 18:00;25,8
2019-03-27 18:15;24,75
2019-03-27 18:30;24,45
2019-03-27 18:45;25
2019-03-27 19:00;22,3
2019-03-27 19:15;18,9
2019-03-27 19:30;20
2019-03-27 19:45;18,5
2019-03-27 20:00;17,75
2019-03-27 20:15;19,35
2019-03-27 20:30;18,6
2019-03-27 20:45;19,15
2019-03-27 21:00;18,1
2019-03-27 21:15;18,2
2019-03-27 21:30;15,15
2019-03-27 21:45;12,8
2019-03-27 22:00;11,8
2019-03-27 22:15;11,5
2019-03-27 22:30;10,35
2019-03-27 22:45;7,25
2019-03-27 23:00;8,1
2019-03-27 23:15;6,9
2019-03-27 23:30;7,55
2019-03-27 23:45;9,7
2019-03-28 00:00;8,25
2019-03-28 00:15;7,35
2019-03-28 00:30;9,3
2019-03-28 00:45;9,7
2019-03-28 01:00;10,15
2019-03-28 01:15;10,1
2019-03-28 01:30;10,5
2019-03-28 01:45;11,15
2019-03-28 02:00;11,9
2019-03-28 02:15;11,25
2019-03-28 02:30;12,2
2019-03-28 02:45;11,35
2019-03-28 03:00;8,45
2019-03-28 03:15;10,6
2019-03-28 03:30;8,2
2019-03-28 03:45;8,1
2019-03-28 04:00;8,8
2019-03-28 04:15;8,1
2019-03-28 04:30;7,75
2019-03-28 04:45;7,75
2019-03-28 05:00;10,45
2019-03-28 05:15;11,75
2019-03-28 05:30;10,3
2019-03-28 05:45;7,7
2019-03-28 06:00;6,15
2019-03-28 06:15;8,15
2019-03-28 06:30;7,9
2019-03-28 06:45;8
2019-03-28 07:00;11,4
2019-03-28 07:15;11,55
2019-03-28 07:30;34,65
2019-03-28 07:45;16,9
2019-03-28 08:00;26,4
2019-03-28 08:15;15,8
2019-03-28 08:30;23,2
2019-03-28 08:45;27,15
2019-03-28 09:00;35,55
2019-03-28 09:15;33,7
2019-03-28 09:30;40,75
2019-03-28 09:45;42,65
2019-03-28 10:00;43,05
2019-03-28 10:15;51,5
2019-03-28 10:30;49,8
2019-03-28 10:45;53,45
2019-03-28 11:00;59,75
2019-03-28 11:15;56,35
2019-03-28 11:30;61,75
2019-03-28 11:45;56,15
2019-03-28 12:00;57,4
2019-03-28 12:15;62,2
2019-03-28 12:30;59,2
2019-03-28 12:45;62,2
2019-03-28 13:00;59,1
2019-03-28 13:15;65,8
2019-03-28 13:30;58,55
2019-03-28 13:45;62,25
2019-03-28 14:00;55,75
2019-03-28 14:15;61,5
2019-03-28 14:30;52,7
2019-03-28 14:45;56,95
2019-03-28 15:00;50,7
2019-03-28 15:15;54,15
2019-03-28 15:30;44,4
2019-03-28 15:45;44,85
2019-03-28 16:00;41,95
2019-03-28 16:15;45,45
2019-03-28 16:30;41,85
2019-03-28 16:45;40,1
2019-03-28 17:00;44,3
2019-03-28 17:15;37,95
2019-03-28 17:30;40,8
2019-03-28 17:45;37,8
2019-03-28 18:00;36,9
2019-03-28 18:15;31,25
2019-03-28 18:30;29,35
2019-03-28 18:45;26,5
2019-03-28 19:00;25
2019-03-28 19:15;24,75
2019-03-28 19:30;22,45
2019-03-28 19:45;19,6
2019-03-28 20:00;19,7
2019-03-28 20:15;21
2019-03-28 20:30;19,3
2019-03-28 20:45;19,5
2019-03-28 21:00;19,45
2019-03-28 21:15;16,45
2019-03-28 21:30;16,6
2019-03-28 21:45;16,1
2019-03-28 22:00;11,8
2019-03-28 22:15;10,6
2019-03-28 22:30;12,2
2019-03-28 22:45;10,05
2019-03-28 23:00;6,25
2019-03-28 23:15;4,3
2019-03-28 23:30;8,3
2019-03-28 23:45;8,7
2019-03-29 00:00;4,35
2019-03-29 00:15;4,4
2019-03-29 00:30;6,2
2019-03-29 00:45;7,25
2019-03-29 01:00;8,85
2019-03-29 01:15;8,3
2019-03-29 01:30;6,35
2019-03-29 01:45;6,95
2019-03-29 02:00;10,05
2019-03-29 02:15;11,15
2019-03-29 02:30;8,85
2019-03-29 02:45;9,6
2019-03-29 03:00;11,65
2019-03-29 03:15;10,45
2019-03-29 03:30;7,5
2019-03-29 03:45;7,35
2019-03-29 04:00;7,65
2019-03-29 04:15;7,1
2019-03-29 04:30;9,55
2019-03-29 04:45;17,35
2019-03-29 05:00;16,1
2019-03-29 05:15;15,05
2019-03-29 05:30;14,85
2019-03-29 05:45;14,05
2019-03-29 06:00;15,4
2019-03-29 06:15;15,1
2019-03-29 06:30;14,25
2019-03-29 06:45;15
2019-03-29 07:00;16,85
2019-03-29 07:15;15,5
2019-03-29 07:30;40,9
2019-03-29 07:45;15,6
2019-03-29 08:00;21,95
2019-03-29 08:15;22,7
2019-03-29 08:30;34,35
2019-03-29 08:45;31,8
2019-03-29 09:00;37,45
2019-03-29 09:15;38,35
2019-03-29 09:30;48,75
2019-03-29 09:45;57,85
2019-03-29 10:00;54,55
2019-03-29 10:15;63,25
2019-03-29 10:30;66,1
2019-03-29 10:45;67,35
2019-03-29 11:00;71,55
2019-03-29 11:15;65,35
2019-03-29 11:30;69
2019-03-29 11:45;71,2
2019-03-29 12:00;68,75
2019-03-29 12:15;76,7
2019-03-29 12:30;73,6
2019-03-29 12:45;77,15
2019-03-29 13:00;73,35
2019-03-29 13:15;72,65
2019-03-29 13:30;67,9
2019-03-29 13:45;78,2
2019-03-29 14:00;74,1
2019-03-29 14:15;69,9
2019-03-29 14:30;71
2019-03-29 14:45;63,1
2019-03-29 15:00;67,45
2019-03-29 15:15;59,8
2019-03-29 15:30;62,4
2019-03-29 15:45;56,85
2019-03-29 16:00;57,4
2019-03-29 16:15;52,7
2019-03-29 16:30;55,25
2019-03-29 16:45;47,95
2019-03-29 17:00;46
2019-03-29 17:15;36,25
2019-03-29 17:30;39,95
2019-03-29 17:45;32,1
2019-03-29 18:00;38,55
2019-03-29 18:15;28,15
2019-03-29 18:30;24,1
2019-03-29 18:45;24,5
2019-03-29 19:00;17,3
2019-03-29 19:15;14,5
2019-03-29 19:30;12,6
2019-03-29 19:45;13,45
2019-03-29 20:00;11,65
2019-03-29 20:15;9,1
2019-03-29 20:30;6,55
2019-03-29 20:45;7,65
2019-03-29 21:00;3,9
2019-03-29 21:15;6,6
2019-03-29 21:30;5,25
2019-03-29 21:45;4,05
2019-03-29 22:00;3,05
2019-03-29 22:15;3,5
2019-03-29 22:30;4,1
2019-03-29 22:45;0,15
2019-03-29 23:00;2,5
2019-03-29 23:15;1,05
2019-03-29 23:30;1,55
2019-03-29 23:45;3,55
2019-03-30 00:00;9,25
2019-03-30 00:15;9,9
2019-03-30 00:30;10,2
2019-03-30 00:45;11,5
2019-03-30 01:00;11,3
2019-03-30 01:15;2,15
2019-03-30 01:30;1,35
2019-03-30 01:45;1,65
2019-03-30 02:00;2,65
2019-03-30 02:15;2,6
2019-03-30 02:30;3,15
2019-03-30 02:45;3,2
2019-03-30 03:00;3,5
2019-03-30 03:15;4,5
2019-03-30 03:30;3,2
2019-03-30 03:45;5,25
2019-03-30 04:00;4,1
2019-03-30 04:15;3,45
2019-03-30 04:30;3,95
2019-03-30 04:45;4
2019-03-30 05:00;4,3
2019-03-30 05:15;3,7
2019-03-30 05:30;3,5
2019-03-30 05:45;2,25
2019-03-30 06:00;2,3
2019-03-30 06:15;3,55
2019-03-30 06:30;2,5
2019-03-30 06:45;1,05
2019-03-30 07:00;2,75
2019-03-30 07:15;4,7
2019-03-30 07:30;4,7
2019-03-30 07:45;3,65
2019-03-30 08:00;2,35
2019-03-30 08:15;1
2019-03-30 08:30;1,6
2019-03-30 08:45;3,85
2019-03-30 09:00;4,3
2019-03-30 09:15;7,05
2019-03-30 09:30;4,85
2019-03-30 09:45;5,3
2019-03-30 10:00;4,65
2019-03-30 10:15;4,2
2019-03-30 10:30;4,45
2019-03-30 10:45;2,8
2019-03-30 11:00;3,2
2019-03-30 11:15;3,95
2019-03-30 11:30;4,15
2019-03-30 11:45;4,95
2019-03-30 12:00;8,3
2019-03-30 12:15;9,2
2019-03-30 12:30;9,2
2019-03-30 12:45;9,05
2019-03-30 13:00;8,05
2019-03-30 13:15;9
2019-03-30 13:30;8,35
2019-03-30 13:45;10,15
2019-03-30 14:00;10,75
2019-03-30 14:15;12,95
2019-03-30 14:30;13,95
2019-03-30 14:45;15,25
2019-03-30 15:00;15,4
2019-03-30 15:15;15,75
2019-03-30 15:30;18,05
2019-03-30 15:45;20,2
2019-03-30 16:00;21,1
2019-03-30 16:15;17,4
2019-03-30 16:30;18,9
2019-03-30 16:45;20,3
2019-03-30 17:00;20,05
2019-03-30 17:15;22,1
2019-03-30 17:30;21,5
2019-03-30 17:45;24,45
2019-03-30 18:00;22,9
2019-03-30 18:15;20,65
2019-03-30 18:30;20,35
2019-03-30 18:45;21,8
2019-03-30 19:00;19,05
2019-03-30 19:15;15,6
2019-03-30 19:30;15,95
2019-03-30 19:45;11,6
2019-03-30 20:00;13,05
2019-03-30 20:15;13,8
2019-03-30 20:30;13,85
2019-03-30 20:45;14,3
2019-03-30 21:00;13,15
2019-03-30 21:15;14,45
2019-03-30 21:30;11,9
2019-03-30 21:45;7,25
2019-03-30 22:00;6,35
2019-03-30 22:15;3,2
2019-03-30 22:30;3,95
2019-03-30 22:45;3,75
2019-03-30 23:00;7
2019-03-30 23:15;6,9
2019-03-30 23:30;4,05
2019-03-30 23:45;2,6
2019-03-31 00:00;4,35
2019-03-31 00:15;8,35
2019-03-31 00:30;2,7
2019-03-31 00:45;0,55
2019-03-31 01:00;1,15
2019-03-31 01:15;0,85
2019-03-31 01:30;0,85
2019-03-31 01:45;3,45
2019-03-31 02:00;2,4
2019-03-31 02:15;3
2019-03-31 02:30;2,55
2019-03-31 02:45;3,15
2019-03-31 03:00;4,4
2019-03-31 03:15;0
2019-03-31 03:30;0
2019-03-31 03:45;0
2019-03-31 04:00;0
2019-03-31 04:15;3,3
2019-03-31 04:30;4,65
2019-03-31 04:45;4,7
2019-03-31 05:00;4
2019-03-31 05:15;4,75
2019-03-31 05:30;3,65
2019-03-31 05:45;4,65
2019-03-31 06:00;4,95
2019-03-31 06:15;4,9
2019-03-31 06:30;4,85
2019-03-31 06:45;3,3
2019-03-31 07:00;4,45
2019-03-31 07:15;4,7
2019-03-31 07:30;7,1
2019-03-31 07:45;8,3
2019-03-31 08:00;7,65
2019-03-31 08:15;6,4
2019-03-31 08:30;7
2019-03-31 08:45;5,95
2019-03-31 09:00;6,9
2019-03-31 09:15;5,45
2019-03-31 09:30;8,25
2019-03-31 09:45;7,75
2019-03-31 10:00;4,6
2019-03-31 10:15;4,5
2019-03-31 10:30;3,5
2019-03-31 10:45;8,3
2019-03-31 11:00;7,4
2019-03-31 11:15;7,55
2019-03-31 11:30;9,6
2019-03-31 11:45;8,25
2019-03-31 12:00;8,6
2019-03-31 12:15;11,9
2019-03-31 12:30;15,85
2019-03-31 12:45;15,95
2019-03-31 13:00;15,15
2019-03-31 13:15;15,15
2019-03-31 13:30;14,95
2019-03-31 13:45;14,4
2019-03-31 14:00;15,75
2019-03-31 14:15;18,4
2019-03-31 14:30;17,35
2019-03-31 14:45;18,05
2019-03-31 15:00;18,9
2019-03-31 15:15;15,5
2019-03-31 15:30;14,15
2019-03-31 15:45;13,55
2019-03-31 16:00;13,7
2019-03-31 16:15;13,2
2019-03-31 16:30;11,2
2019-03-31 16:45;11,55
2019-03-31 17:00;12,75
2019-03-31 17:15;13,2
2019-03-31 17:30;14,8
2019-03-31 17:45;10,9
2019-03-31 18:00;11,25
2019-03-31 18:15;10,2
2019-03-31 18:30;10,05
2019-03-31 18:45;10,2
2019-03-31 19:00;10,4
2019-03-31 19:15;11,65
2019-03-31 19:30;10,65
2019-03-31 19:45;11,2
2019-03-31 20:00;7,85
2019-03-31 20:15;6,65
2019-03-31 20:30;6,9
2019-03-31 20:45;6,5
2019-03-31 21:00;5,4
2019-03-31 21:15;5,4
2019-03-31 21:30;5,1
2019-03-31 21:45;3,15
2019-03-31 22:00;3,1
2019-03-31 22:15;5,7
2019-03-31 22:30;6,15
2019-03-31 22:45;5,75
2019-03-31 23:00;8,7
2019-03-31 23:15;7,25
2019-03-31 23:30;6,1
2019-03-31 23:45;6,6

